Date,Pressure,Depth,Temperature,Conductivity,Salinity,Fluorescence,timeJ,Latitude,Longitude,Irradiance,Transmission,Density,Oxygen_ml/l,Oxygen_umol/kg
2015-06-09T08:28:00,2.000,-2.0,22.8232,5.443644,37.8292,0.0824,160,43.24,5.29,1.5517e+03,95.3492,26.1295,4.81382,209.057
2015-06-09T08:28:00,3.000,-3.0,22.3960,5.402079,37.8799,0.0673,160,43.24,5.29,1.0445e+03,95.5321,26.2859,4.85110,210.656
2015-06-09T08:28:00,4.000,-4.0,22.1819,5.380335,37.8963,0.0679,160,43.24,5.29,8.2865e+02,95.7432,26.3583,4.90428,212.956
2015-06-09T08:28:00,5.000,-5.0,21.7537,5.338547,37.9454,0.0638,160,43.24,5.29,6.9062e+02,96.0332,26.5122,4.96287,215.480
2015-06-09T08:28:00,6.000,-5.9,21.3139,5.296352,37.9994,0.0525,160,43.24,5.29,6.4422e+02,96.8026,26.6733,4.98354,216.358
2015-06-09T08:28:00,7.000,-7.0,21.2203,5.286956,38.0045,0.0357,160,43.24,5.29,5.9688e+02,96.9864,26.7046,4.99514,216.859
2015-06-09T08:28:00,8.000,-7.9,20.6385,5.220834,37.9926,0.0393,160,43.24,5.29,5.3895e+02,97.5170,26.8501,5.18182,224.952
2015-06-09T08:28:00,9.000,-8.9,20.0077,5.151835,38.0006,0.0403,160,43.24,5.29,4.9941e+02,97.6150,27.0200,5.44562,236.390
2015-06-09T08:28:00,10.000,-9.9,19.6962,5.118270,38.0034,0.0536,160,43.24,5.29,5.0121e+02,97.5271,27.1052,5.42452,235.468
2015-06-09T08:28:00,11.000,-10.9,19.3674,5.082695,38.0029,0.0646,160,43.24,5.29,4.3051e+02,97.1610,27.1929,5.34217,231.887
2015-06-09T08:28:00,12.000,-11.9,19.1781,5.061345,37.9943,0.0574,160,43.24,5.29,4.2286e+02,96.8576,27.2371,5.33900,231.748
2015-06-09T08:28:00,13.000,-12.9,19.1438,5.063052,38.0324,0.0407,160,43.24,5.29,3.8007e+02,96.9404,27.2809,5.26311,228.446
2015-06-09T08:28:00,14.000,-13.9,18.7792,5.020553,38.0100,0.0395,160,43.24,5.29,3.6675e+02,97.1400,27.3557,5.29004,229.614
2015-06-09T08:28:00,15.000,-14.9,18.4982,4.992671,38.0317,0.0443,160,43.24,5.29,3.4141e+02,97.2933,27.4443,5.31755,230.801
2015-06-09T08:28:00,16.000,-15.9,18.3337,4.980930,38.0796,0.0316,160,43.24,5.29,3.2430e+02,97.5636,27.5257,5.30689,230.328
2015-06-09T08:28:00,17.000,-16.9,18.0899,4.954031,38.0754,0.0218,160,43.24,5.29,2.9641e+02,97.8509,27.5834,5.34927,232.167
2015-06-09T08:28:00,18.000,-17.9,17.8552,4.924658,38.0387,0.0244,160,43.24,5.29,2.9136e+02,98.1160,27.6149,5.38137,233.564
2015-06-09T08:28:00,19.000,-18.8,17.6856,4.906633,38.0363,0.0341,160,43.24,5.29,2.5870e+02,98.1218,27.6584,5.43484,235.883
2015-06-09T08:28:00,20.000,-19.9,17.4876,4.885253,38.0375,0.0279,160,43.24,5.29,2.5654e+02,98.1107,27.7067,5.50048,238.731
2015-06-09T08:28:00,21.000,-20.8,17.3785,4.872196,38.0221,0.0369,160,43.24,5.29,2.5507e+02,98.1836,27.7243,5.49780,238.616
2015-06-09T08:28:00,22.000,-21.8,17.2317,4.857175,38.0257,0.0466,160,43.24,5.29,2.2170e+02,98.0029,27.7649,5.51020,239.152
2015-06-09T08:28:00,23.000,-22.8,17.1319,4.845197,38.0132,0.0587,160,43.24,5.29,2.3276e+02,97.8358,27.7804,5.52610,239.844
2015-06-09T08:28:00,24.000,-23.8,17.0089,4.831552,38.0078,0.0781,160,43.24,5.29,2.0628e+02,97.4678,27.8068,5.55390,241.051
2015-06-09T08:28:00,25.000,-24.8,16.8865,4.818996,38.0112,0.0784,160,43.24,5.29,1.8940e+02,97.2350,27.8399,5.58126,242.238
2015-06-09T08:28:00,26.000,-25.8,16.7880,4.808914,38.0132,0.0839,160,43.24,5.29,1.7545e+02,97.1232,27.8664,5.55885,241.264
2015-06-09T08:28:00,27.000,-26.8,16.7225,4.803016,38.0211,0.0776,160,43.24,5.29,1.7086e+02,97.0494,27.8894,5.53256,240.121
2015-06-09T08:28:00,28.000,-27.8,16.4959,4.776424,38.0012,0.0790,160,43.24,5.29,1.5473e+02,97.0531,27.9269,5.56029,241.328
2015-06-09T08:28:00,29.000,-28.8,16.4062,4.766993,38.0007,0.0823,160,43.24,5.29,1.4645e+02,97.1136,27.9489,5.53403,240.189
2015-06-09T08:28:00,30.000,-29.8,16.2310,4.748204,38.0003,0.0837,160,43.24,5.29,1.3515e+02,97.1350,27.9892,5.58344,242.334
2015-06-09T08:28:00,31.000,-30.7,16.1734,4.743705,38.0120,0.1042,160,43.24,5.29,1.2698e+02,97.0886,28.0139,5.56523,241.541
2015-06-09T08:28:00,32.000,-31.7,16.2200,4.751453,38.0328,0.1070,160,43.24,5.29,1.2149e+02,97.0179,28.0218,5.55738,241.196
2015-06-09T08:28:00,33.000,-32.7,16.1469,4.742801,38.0237,0.1005,160,43.24,5.29,1.1042e+02,97.1934,28.0328,5.54881,240.825
2015-06-09T08:28:00,34.000,-33.7,15.9287,4.717164,38.0044,0.1042,160,43.24,5.29,1.0468e+02,97.2490,28.0668,5.57554,241.990
2015-06-09T08:28:00,35.000,-34.7,15.7605,4.698765,38.0002,0.1151,160,43.24,5.29,9.8522e+01,97.2493,28.1018,5.56584,241.570
2015-06-09T08:28:00,36.000,-35.7,15.5982,4.682412,38.0082,0.1427,160,43.24,5.29,9.1480e+01,96.9987,28.1451,5.55886,241.267
2015-06-09T08:28:00,37.000,-36.7,15.4098,4.663132,38.0150,0.1484,160,43.24,5.29,8.4586e+01,96.5012,28.1929,5.56634,241.592
2015-06-09T08:28:00,38.000,-37.7,15.3361,4.654869,38.0085,0.1319,160,43.24,5.29,7.8414e+01,96.6486,28.2062,5.56196,241.403
2015-06-09T08:28:00,39.000,-38.7,15.2734,4.648540,38.0089,0.0837,160,43.24,5.29,7.7387e+01,97.0493,28.2223,5.58179,242.264
2015-06-09T08:28:00,40.000,-39.7,15.2596,4.647405,38.0088,0.0669,160,43.24,5.29,6.4975e+01,97.5997,28.2275,5.57184,241.831
2015-06-09T08:28:00,41.000,-40.7,15.2169,4.642871,38.0066,0.0705,160,43.24,5.29,6.3269e+01,97.8876,28.2367,5.56695,241.620
2015-06-09T08:28:00,42.000,-41.7,15.1165,4.632161,38.0055,0.0730,160,43.24,5.29,5.9751e+01,98.0655,28.2585,5.58093,242.227
2015-06-09T08:28:00,43.000,-42.6,15.0513,4.626349,38.0146,0.0720,160,43.24,5.29,5.5427e+01,98.1166,28.2806,5.57822,242.109
2015-06-09T08:28:00,44.000,-43.6,15.0005,4.621236,38.0158,0.0939,160,43.24,5.29,5.2634e+01,98.1410,28.2936,5.57762,242.083
2015-06-09T08:28:00,45.000,-44.6,14.9490,4.616722,38.0230,0.1119,160,43.24,5.29,4.9036e+01,98.1152,28.3114,5.57216,241.845
2015-06-09T08:28:00,46.000,-45.6,14.8419,4.605929,38.0283,0.1412,160,43.24,5.29,4.5949e+01,97.9248,28.3388,5.60787,243.395
2015-06-09T08:28:00,47.000,-46.6,14.7454,4.595491,38.0240,0.2738,160,43.24,5.29,4.3027e+01,97.3610,28.3582,5.61636,243.765
2015-06-09T08:28:00,48.000,-47.6,14.7274,4.595095,38.0364,0.3118,160,43.24,5.29,3.9165e+01,96.7906,28.3727,5.60176,243.129
2015-06-09T08:28:00,49.000,-48.6,14.6888,4.592057,38.0442,0.3266,160,43.24,5.29,3.5908e+01,95.9699,28.3884,5.52680,239.874
2015-06-09T08:28:00,50.000,-49.6,14.6407,4.586861,38.0424,0.2617,160,43.24,5.29,3.2817e+01,95.9622,28.3979,5.46358,237.131
2015-06-09T08:28:00,51.000,-50.6,14.5874,4.581189,38.0412,0.2426,160,43.24,5.29,3.0119e+01,96.6361,28.4090,5.46516,237.200
2015-06-09T08:28:00,52.000,-51.6,14.4932,4.570984,38.0392,0.3229,160,43.24,5.29,2.7797e+01,96.6775,28.4275,5.44454,236.307
2015-06-09T08:28:00,53.000,-52.6,14.4693,4.571481,38.0653,0.3557,160,43.24,5.29,2.5569e+01,95.5431,28.4542,5.39126,233.990
2015-06-09T08:28:00,54.000,-53.6,14.4144,4.567356,38.0806,0.3238,160,43.24,5.29,2.2851e+01,95.4985,28.4780,5.37610,233.330
2015-06-09T08:28:00,55.000,-54.6,14.3525,4.562138,38.0923,0.3265,160,43.24,5.29,2.0962e+01,95.4958,28.5007,5.27922,229.124
2015-06-09T08:28:00,56.000,-55.6,14.1619,4.544330,38.1122,0.3387,160,43.24,5.29,1.8779e+01,93.5918,28.5585,5.07816,220.396
